Starlink 2736

operational
NORAD ID: 48640 Int'l Des: 2021-044 Owner: SPXS Country: US Constellation: starlink
LEOCIRCULARSTARLINK_TYPE

Starlink 2736について

説明を読み込み中...

リアルタイム位置

3D地球を読み込み中...

次回通過

高度履歴

Altitude vs Time

uPlot chart will show altitude changes over time

軌道要素

1 48640U 21044C 26035.86235500 -.00004191 00000-0 -26276-3 0 9991
2 48640 53.0522 264.2620 0000659 77.0316 283.0747 15.06381491258821
Epoch: Feb 4, 2026 • Age: 13 hours

現在のステータス

高度 554.4 km
速度 7.58 km/s
衛星直下点 -24.28°S, 32.84°W
打ち上げ日 May 26, 2021
運用期間 4.6 years
タイプ internet

技術仕様

分類 Payload
質量 260.00 kg
乾燥質量 248.00 kg
総質量 260.00 kg
長さ 0.20 m
直径 2.80 m
スパン 9.00 m
形状 Box + pan
製造者 SPXS
バスタイプ Starlink
フェーズステータス In Orbit
所有者/国 SPXS/US

大規模コンステレーション

Loading constellations...